User: anonymous   Login
Location: Unspecified
(0.0000°N, 0.0000°E)
Time: 23:13:13
(UTC+00:00)
Language:

IGS 4A - Orbit

View from above orbital plane
View from above orbital plane
View from above satellite
View from above satellite

Ground track
Ground track

The orbit is defined by the following mean orbital elements,

1 30586U 07005A   13223.10911614 0.00018000  00000-0  36604-3 0    02
2 30586  97.4244 359.8563 0001000 311.9054  48.0945 15.46309637    01
Epoch (UTC): 11 August 2013 02:37:07
Eccentricity: 0.0001000
inclination: 97.4244°
perigee height: 427 km
apogee height: 428 km
right ascension of ascending node: 359.8563°
argument of perigee: 311.9054°
revolutions per day: 15.46309637
mean anomaly at epoch: 48.0945°

The dashed part of the orbit path shows where the satellite is in the earth's shadow,  

DLR